Weather observations for the past three days for
Baltimore, Inner Harbor
| Date | Time (edt) | Wind (mph) | Vis. (mi.) | Weather | Sky Cond. | Temperature (ºF) | Relative Humidity | Wind Chill (°F) | Heat Index (°F) | Pressure | Precipitation (in) | ||||||
|---|---|---|---|---|---|---|---|---|---|---|---|---|---|---|---|---|---|
| Air | Dwpt | 6 hour | altimeter (in) | sea level (mb) | 1 hr | 3 hr | 6 hr | ||||||||||
| Max. | Min. | ||||||||||||||||
| 09 | 10:53 | Calm | 0.00 | NULL | NULL | 64 | 45 | 50% | 29.88 | 1011.9 | |||||||
| 09 | 09:53 | Calm | 0.00 | NULL | NULL | 63 | 46 | 54% | 29.88 | 1011.9 | |||||||
| 09 | 08:53 | Calm | 0.00 | NULL | NULL | 62.1 | 45 | 54% | 29.88 | 1011.8 | |||||||
| 09 | 07:53 | Calm | 0.00 | NULL | NULL | 60.1 | 45 | 60.1 | 57 | 58% | 29.88 | 1011.7 | |||||
| 09 | 06:53 | Calm | 0.00 | NULL | NULL | 57.9 | 43 | 58% | 29.87 | 1011.4 | |||||||
| 09 | 05:53 | Calm | 0.00 | NULL | NULL | 60.1 | 41 | 50% | 29.86 | 1011.0 | |||||||
| 09 | 04:53 | Calm | 0.00 | NULL | NULL | 60.1 | 41 | 50% | 29.87 | 1011.3 | |||||||
| 09 | 03:53 | Calm | 0.00 | NULL | NULL | 59 | 42.1 | 54% | 29.88 | 1011.7 | |||||||
| 09 | 02:53 | Calm | 0.00 | NULL | NULL | 57.9 | 42.1 | 56% | 29.88 | 1011.9 | |||||||
| 09 | 01:53 | Calm | 0.00 | NULL | NULL | 57.9 | 42.1 | 70 | 55.9 | 56% | 29.9 | 1012.4 | |||||
| 09 | 00:53 | Calm | 0.00 | NULL | NULL | 59 | 42.1 | 54% | 29.9 | 1012.5 | |||||||
| 08 | 23:53 | Calm | 0.00 | NULL | NULL | 60.1 | 45 | 58% | 29.91 | 1012.6 | |||||||
| 08 | 22:53 | Calm | 0.00 | NULL | NULL | 61 | 44.1 | 54% | 29.91 | 1012.8 | |||||||
| 08 | 21:53 | Calm | 0.00 | NULL | NULL | 64 | 45 | 50% | 29.91 | 1012.7 | |||||||
| 08 | 20:53 | Calm | 0.00 | NULL | NULL | 64.9 | 43 | 45% | 29.9 | 1012.4 | |||||||
| 08 | 19:53 | Calm | 0.00 | NULL | NULL | 70 | 33.1 | 73.9 | 69.1 | 26% | 29.87 | 1011.6 | |||||
| 08 | 18:53 | Calm | 0.00 | NULL | NULL | 71.1 | 30 | 22% | 29.86 | 1011.2 | |||||||
| 08 | 17:53 | Calm | 0.00 | NULL | NULL | 71.1 | 30 | 22% | 29.87 | 1011.3 | |||||||
| 08 | 16:53 | Calm | 0.00 | NULL | NULL | 73 | 30 | 20% | 29.87 | 1011.3 | |||||||
| 08 | 15:53 | Calm | 0.00 | NULL | NULL | 71.1 | 28.9 | 21% | 29.88 | 1011.7 | |||||||
| 08 | 14:53 | Calm | 0.00 | NULL | NULL | 70 | 28.9 | 22% | 29.9 | 1012.4 | |||||||
| 08 | 13:53 | Calm | 0.00 | NULL | NULL | 70 | 30 | 71.1 | 55 | 23% | 29.94 | 1013.7 | |||||
| 08 | 12:53 | Calm | 0.00 | NULL | NULL | 68 | 28.9 | 23% | 29.94 | 1013.9 | |||||||
| 08 | 11:53 | Calm | 0.00 | NULL | NULL | 66 | 32 | 28% | 29.97 | 1015.0 | |||||||
| 08 | 10:53 | Calm | 0.00 | NULL | NULL | 64 | 28.9 | 27% | 29.99 | 1015.4 | |||||||
| 08 | 09:53 | Calm | 0.00 | NULL | NULL | 62.1 | 27 | 26% | 30 | 1016.0 | |||||||
| 08 | 08:53 | Calm | 0.00 | NULL | NULL | 59 | 30 | 33% | 30.03 | 1016.9 | |||||||
| 08 | 07:53 | Calm | 0.00 | NULL | NULL | 55 | 33.1 | 55 | 51.1 | 44% | 30.02 | 1016.4 | |||||
| 08 | 06:53 | Calm | 0.00 | NULL | NULL | 52 | 33.1 | 49% | 29.97 | 1014.7 | |||||||
| 08 | 05:53 | Calm | 0.00 | NULL | NULL | 53.1 | 32 | 45% | 29.95 | 1014.1 | |||||||
| 08 | 04:53 | Calm | 0.00 | NULL | NULL | 53.1 | 32 | 45% | 29.94 | 1013.7 | |||||||
| 08 | 03:53 | Calm | 0.00 | NULL | NULL | 55 | 32 | 42% | 29.92 | 1013.1 | |||||||
| 08 | 02:53 | Calm | 0.00 | NULL | NULL | 54 | 39 | 57% | 29.89 | 1012.3 | |||||||
| 08 | 01:53 | Calm | 0.00 | NULL | NULL | 53.1 | 44.1 | 60.1 | 53.1 | 72% | 29.88 | 1011.8 | |||||
| 08 | 00:53 | Calm | 0.00 | NULL | NULL | 54 | 44.1 | 69% | 29.87 | 1011.3 | |||||||
| 07 | 23:53 | Calm | 0.00 | NULL | NULL | 55 | 44.1 | 67% | 29.85 | 1010.7 | |||||||
| 07 | 22:53 | Calm | 0.00 | NULL | NULL | 55.9 | 44.1 | 65% | 29.85 | 1010.7 | |||||||
| 07 | 21:53 | Calm | 0.00 | NULL | NULL | 57 | 43 | 60% | 29.83 | 1010.2 | |||||||
| 07 | 20:53 | Calm | 0.00 | NULL | NULL | 59 | 39.9 | 49% | 29.8 | 1009.2 | |||||||
| 07 | 19:53 | Calm | 0.00 | NULL | NULL | 61 | 39.9 | 66 | 61 | 46% | 29.76 | 1007.9 | |||||
| 07 | 18:53 | Calm | 0.00 | NULL | NULL | 63 | 39.9 | 43% | 29.77 | 1008.1 | |||||||
| 07 | 17:53 | Calm | 0.00 | NULL | NULL | 63 | 41 | 45% | 29.78 | 1008.3 | |||||||
| 07 | 16:53 | Calm | 0.00 | NULL | NULL | 64 | 39.9 | 41% | 29.8 | 1009.1 | |||||||
| 07 | 15:53 | Calm | 0.00 | NULL | NULL | 64 | 39.9 | 41% | 29.81 | 1009.3 | |||||||
| 07 | 14:53 | Calm | 0.00 | NULL | NULL | 64 | 39.9 | 41% | 29.84 | 1010.5 | |||||||
| 07 | 13:53 | Calm | 0.00 | NULL | NULL | 62.1 | 36 | 62.1 | 55 | 38% | 29.86 | 1011.0 | |||||
| 07 | 12:53 | Calm | 0.00 | NULL | NULL | 60.1 | 36 | 41% | 29.88 | 1011.9 | |||||||
| 07 | 11:53 | Calm | 0.00 | NULL | NULL | 57.9 | 34 | 41% | 29.91 | 1012.7 | |||||||
| 07 | 10:53 | Calm | 0.00 | NULL | NULL | 55.9 | 35.1 | 46% | 29.91 | 1012.9 | |||||||
| 07 | 09:53 | Calm | 0.00 | NULL | NULL | 55.9 | 35.1 | 46% | 29.92 | 1013.2 | |||||||
| 07 | 08:53 | Calm | 0.00 | NULL | NULL | 55 | 37 | 51% | 29.92 | 1013.3 | |||||||
| 07 | 07:53 | Calm | 0.00 | NULL | NULL | 55 | 37.9 | 57.9 | 54 | 53% | 29.91 | 1012.9 | 0.01 | ||||
| 07 | 06:53 | Calm | 0.00 | NULL | NULL | 55 | 39 | 55% | 29.89 | 1012.2 | |||||||
| 07 | 05:53 | Calm | 0.00 | NULL | NULL | 55 | 45 | 69% | 29.88 | 1011.8 | 0.01 | ||||||
| 07 | 04:53 | Calm | 0.00 | NULL | NULL | 55 | 48.9 | 80% | 29.87 | 1011.6 | |||||||
| 07 | 03:53 | Calm | 0.00 | NULL | NULL | 55 | 48.9 | 80% | 29.85 | 1010.6 | |||||||
| 07 | 02:53 | Calm | 0.00 | NULL | NULL | 57 | 51.1 | 81% | 29.86 | 1011.0 | |||||||
| 07 | 01:53 | Calm | 0.00 | NULL | NULL | 57.9 | 53.1 | 70 | 57 | 84% | 29.85 | 1010.6 | 0.13 | 0.14 | |||
| 07 | 00:53 | Calm | 0.00 | NULL | NULL | 60.1 | 55 | 84% | 29.85 | 1010.9 | 0.01 | ||||||
| 06 | 23:53 | Calm | 0.00 | NULL | NULL | 64 | 54 | 70% | 29.83 | 1010.0 | |||||||
| 06 | 22:53 | Calm | 0.00 | NULL | NULL | 66 | 55 | 68% | 29.82 | 1009.6 | |||||||
| 06 | 21:53 | Calm | 0.00 | NULL | NULL | 69.1 | 60.1 | 73% | 29.8 | 1009.1 | |||||||
| 06 | 20:53 | Calm | 0.00 | NULL | NULL | 70 | 60.1 | 71% | 29.8 | 1009.0 | |||||||
| 06 | 19:53 | Calm | 0.00 | NULL | NULL | 70 | 60.1 | 72 | 66.9 | 71% | 29.79 | 1008.7 | |||||
| 06 | 18:53 | Calm | 0.00 | NULL | NULL | 71.1 | 60.1 | 68% | 29.77 | 1008.0 | |||||||
| 06 | 17:53 | Calm | 0.00 | NULL | NULL | 72 | 60.1 | 66% | 29.77 | 1008.2 | |||||||
| 06 | 16:53 | Calm | 0.00 | NULL | NULL | 71.1 | 59 | 66% | 29.76 | 1007.6 | |||||||
| 06 | 15:53 | Calm | 0.00 | NULL | NULL | 72 | 60.1 | 66% | 29.76 | 1007.8 | |||||||
| 06 | 14:53 | Calm | 0.00 | NULL | NULL | 69.1 | 59 | 70% | 29.78 | 1008.6 | |||||||
| 06 | 13:53 | Calm | 0.00 | NULL | NULL | 66.9 | 57.9 | 66.9 | 62.1 | 73% | 29.8 | 1009.1 | 0.09 | ||||
| 06 | 12:53 | Calm | 0.00 | NULL | NULL | 64.9 | 59 | 81% | 29.8 | 1009.1 | |||||||
| 06 | 11:53 | Calm | 0.00 | NULL | NULL | 63 | 59 | 87% | 29.82 | 1009.7 | 0.01 | ||||||
| Date | Time (edt) | Wind (mph) | Vis. (mi.) | Weather | Sky Cond. | Air | Dwpt | Max. | Min. | Relative Humidity | Wind Chill (°F) | Heat Index (°F) | altimeter (in) | sea level (mb) | 1 hr | 3 hr | 6 hr |
| 6 hour | |||||||||||||||||
| Temperature (ºF) | Pressure | Precipitation (in) | |||||||||||||||